Regional Weather Roundup
Issued by NWS

Home | Current Version | Previous Version | Graphics & Text | Print | Product List | Glossary On
Versions: 1 2 3 4 5 6 7 8 9 10 11 12 13 14 15 16 17 18 19 20 21 22 23 24 25 26 27 28 29 30 31 32 33 34 35 36 37 38 39 40 41 42 43 44 45 46 47 48 49 50
000
ASUS43 KMKX 230920
RWRWI

WISCONSIN REGIONAL WEATHER ROUNDUP
NATIONAL WEATHER SERVICE MILWAUKEE/SULLIVAN WI
400 AM CDT MON APR 23 2018

NOTE: "FAIR" INDICATES FEW OR NO CLOUDS BELOW 12,000 FEET WITH NO
SIGNIFICANT WEATHER AND/OR OBSTRUCTIONS TO VISIBILITY.

WIZ001-002-006>008-014>016-023>028-231000-
NORTHWEST WISCONSIN

CITY           SKY/WX    TMP DP  RH WIND       PRES   REMARKS
SUPERIOR ARPT  FAIR      31  25  78 CALM      30.23S
ASHLAND        FAIR      36  25  64 W7        30.24R WCI  30
HAYWARD        FAIR      28  25  88 N3        30.24F
SIREN          FAIR      32  28  83 CALM      30.24S
CUMBERLAND     FAIR      32  27  80 CALM      30.25S
RICE LAKE      FAIR      33  29  85 CALM      30.27S
CHETEK         FAIR      31  27  86 CALM      30.26S
LADYSMITH      FAIR      33  28  81 CALM      30.28S
EAU CLAIRE     FAIR      35  26  69 N3        30.25S
MENOMONIE      FAIR      36  33  88 CALM      30.26S
NEW RICHMOND   FAIR      33  30  90 CALM      30.25S
OSCEOLA        FAIR      33  31  91 CALM      30.28S
$$

WIZ003>005-009-010-017-018-231000-
NORTH CENTRAL WISCONSIN

CITY           SKY/WX    TMP DP  RH WIND       PRES   REMARKS
MANITOWISH WTR FAIR      27  26  96 CALM      30.26S
ARBOR VITAE    FAIR      32  23  70 CALM      30.26S
WOODRUFF       FAIR      32  23  70 CALM      30.26S
RHINELANDER    FAIR      30  20  66 CALM      30.27S
EAGLE RIVER    FAIR      27  20  77 CALM      30.27S
LAND O LAKES   FAIR      26  22  86 CALM      30.29R
PHILLIPS       FAIR      30  25  83 CALM      30.26S
TOMAHAWK       FAIR      26  20  81 CALM      30.28S
MEDFORD        FAIR      31  24  74 CALM      30.26S
MERRILL          N/A     26  22  85 CALM      30.28F
$$

WIZ029-030-035-036-043>047-231000-
CENTRAL WISCONSIN

CITY           SKY/WX    TMP DP  RH WIND       PRES   REMARKS
WAUSAU         FAIR      31  23  72 CALM      30.26S
MOSINEE        FAIR      36  27  69 CALM      30.28S
MARSHFIELD     FAIR      36  24  62 E3        30.25F
STEVENS POINT  FAIR      27  23  86 CALM      30.28F
WAUPACA        FAIR      31  27  86 N3        30.29S
WAUTOMA        FAIR      28  24  85 CALM      30.29R
WISC RAPIDS    FAIR      33  25  72 CALM      30.28S
CAMP DOUGLAS   FAIR      28  27  95 CALM      30.27R
$$

WIZ011>013-019>022-031-037>040-048>050-231000-
NORTHEAST WISCONSIN

CITY           SKY/WX    TMP DP  RH WIND       PRES   REMARKS
ANTIGO         FAIR      35  26  68 CALM      30.28S
SHAWANO        FAIR      31  27  86 CALM      30.29S
OCONTO         FAIR      28  26  89 CALM      30.29S
STURGEON BAY   FAIR      41  17  38 E6        30.30S
GREEN BAY      FAIR      32  28  85 N3        30.29S
MANITOWOC      FAIR      33  26  75 CALM      30.29S
APPLETON       FAIR      37  18  44 CALM      30.27R
CLINTONVILLE   FAIR      30  26  84 CALM      30.29S
OSHKOSH        FAIR      40  26  57 CALM      30.27S
$$

WIZ032>034-041-042-053>061-231000-
SOUTHWEST WISCONSIN

CITY           SKY/WX    TMP DP  RH WIND       PRES   REMARKS
LA CROSSE      FAIR      40  30  67 E3        30.26S
SPARTA         FAIR      29  26  88 CALM      30.28R
VIROQUA        FAIR      40  29  65 E8        30.25S WCI  35
BOSCOBEL       FAIR      33  30  88 CALM      30.25F
PRAIRIE DU CHI FAIR      38  31  76 CALM      30.25S
PLATTEVILLE    FAIR      42  29  58 E10       30.23S
$$

WIZ056-057-062-063-064-067-068-231000-
SOUTH CENTRAL WISCONSIN

CITY           SKY/WX    TMP DP  RH WIND       PRES   REMARKS
REEDSBURG      FAIR      33  32  96 CALM      30.26F
BARABOO/DELLS  FAIR      32  27  82 CALM      30.26S
LONE ROCK      FAIR      33  30  88 CALM      30.26S
MINERAL POINT  FAIR      45  27  49 E8        30.24S
MADISON        FAIR      34  27  75 CALM      30.25F
MIDDLETON      FAIR      35  31  84 CALM      30.25F
WATERTOWN      FAIR      35  28  75 E3        30.25S
MONROE         FAIR      41  27  56 NE7       30.23S
JANESVILLE     FAIR      37  28  70 NE5       30.23F WCI  34
$$

WIZ051-052-058>065-066-070>072-231000-
SOUTHEAST WISCONSIN

CITY           SKY/WX    TMP DP  RH WIND       PRES   REMARKS
MILWAUKEE      FAIR      41  31  67 NE3       30.26F
WAUKESHA       FAIR      36  21  55 NE5       30.27S WCI  32
MILWAUKEE/TIMM FAIR      34  23  64 CALM      30.27S
RACINE         FAIR      37  31  78 N5        30.26S WCI  33
BURLINGTON     FAIR      38  26  63 N5        30.24S WCI  34
KENOSHA        FAIR      38  28  67 N6        30.24R WCI  33
FOND DU LAC    FAIR      35  25  66 NE6       30.27S WCI  30
SHEBOYGAN      FAIR      34  26  72 CALM      30.28R
WEST BEND      FAIR      30  28  93 CALM      30.27F
JUNEAU         FAIR      40  22  49 CALM      30.27S
$$

LSZ147-162-231000-
LAKE SUPERIOR

STATION/POSITION TIME  TEMP    WIND        PRES    WAVE
                       AIR SEA DIR/SP/G            HT/PER
                 (UTC) (F)     (DEG/KT/KT) (MB)    (FT/S)
DEVILS ISLAND    0900   41     220/  9/ 10 1024.2R
SAXON HARBOR     0840   42     190/  5/  8 1023.0S
$$

LMZ867-665-643>646-231000-
LAKE MICHIGAN

STATION/POSITION TIME  TEMP    WIND        PRES    WAVE
                       AIR SEA DIR/SP/G            HT/PER
                 (UTC) (F)     (DEG/KT/KT) (MB)    (FT/S)
NORTHPORT PIER   0840   40                 1025.7S
KEWAUNEE LAKESHO 0854   32     310/  4/  5 1024.9R
SHEBOYGAN LAKESH 0900   42      10/  7/  8 1025.8R
PORT WASHINGTON  0840   42     360/  1/  3 1026.1S
MILWAUKEE LAKESH 0900   42     350/  4/  5   N/A
KENOSHA   LAKESH 0900   41                 1024.0
$$

TC  - TEMPERATURE IN CELSIUS
VSB - VISIBILITY IN STATUTE MILES
WCI - WIND CHILL INDEX
HX  - HEAT INDEX




USA.gov is the U.S. government's official web portal to all federal, state and local government web resources and services.